Location: Melbourne
(37.8120°S, 144.9677°E)
Time: 09:34:15
(UTC+10:00)

ISS - Visible Passes

Search period start: 05 August 2020 00:00
Search period end: 15 August 2020 00:00
Orbit: 418 x 420 km, 51.6° (Epoch: 05 August)

Date Brightness Start Highest point End Pass type
(mag) Time Alt. Az. Time Alt. Az. Time Alt. Az.
05 Aug -1.1 05:57:30 10° S 05:59:00 12° SSE 06:00:29 10° SE visible
06 Aug -2.2 06:45:46 10° SSW 06:48:51 30° SSE 06:51:55 10° E visible
07 Aug -1.6 05:58:56 13° SSW 06:01:09 21° SSE 06:03:51 10° E visible
08 Aug -1.2 05:13:22 16° SSE 05:13:23 16° SSE 05:15:33 10° ESE visible
09 Aug -3.0 06:00:48 19° SSW 06:03:02 48° SE 06:06:21 10° ENE visible
10 Aug -2.2 05:15:21 30° SSE 05:15:21 30° SSE 05:18:26 10° E visible
11 Aug -0.3 04:29:58 12° ESE 04:29:58 12° ESE 04:30:19 10° E visible
11 Aug -3.5 06:02:57 25° WSW 06:04:37 52° NW 06:07:56 10° NNE visible
12 Aug -3.2 05:17:40 57° ENE 05:17:40 57° ENE 05:20:27 10° NE visible
13 Aug -0.4 04:32:30 12° ENE 04:32:30 12° ENE 04:32:44 10° ENE visible
13 Aug -1.9 06:05:29 16° WNW 06:05:55 16° NW 06:08:07 10° N visible
14 Aug -1.5 05:20:25 17° N 05:20:25 17° N 05:21:25 10° NNE visible
